EW4462 Weather Reports


Display with metric or nautical units.
time (UTC)temp
F
wind
direction
speed
MPH
gust
MPH
rain 1hr
in
rain 24hr
in
rain mn
in
humidity
%
barometer
mb
20260504182206 67 116 0.0 0.0 0.00 0.00 0.00 64 1017.5
20260504181200 66 89 0.0 0.0 0.00 0.00 0.00 65 1017.5
20260504175041 66 144 0.0 2.0 0.00 0.00 0.00 67 1017.4
20260504171656 64 112 0.0 4.0 0.00 0.00 0.00 70 1017.1
20260504170654 64 103 0.0 3.0 0.00 0.00 0.00 67 1016.9
20260504160425 63 101 0.0 0.0 0.00 0.00 0.00 71 1016.8
20260504140930 58 219 0.0 0.0 0.00 0.00 0.00 87 1016.3
20260504130800 57 164 0.0 0.0 0.00 0.00 0.00 83 1015.8
20260504110426 59 160 0.0 0.0 0.00 0.00 0.00 80 1015.9
20260504100332 59 160 0.0 0.0 0.00 0.00 0.00 82 1015.4
20260504080758 61 109 0.0 0.0 0.00 0.00 0.00 79 1016.7
20260504050447 63 155 0.0 0.0 0.00 0.00 0.00 73 1016.0
20260504045502 63 90 0.0 0.0 0.00 0.00 0.00 72 1016.3
20260504043342 63 91 0.0 0.0 0.00 0.00 0.00 71 1015.7
20260504042335 63 91 0.0 0.0 0.00 0.00 0.00 71 1015.7
20260504041351 63 91 0.0 0.0 0.00 0.00 0.00 71 1015.6
20260504040342 63 90 0.0 0.0 0.00 0.00 0.00 71 1015.8
20260504035323 63 90 0.0 0.0 0.00 0.00 0.00 71 1015.6
20260504034256 63 97 0.0 0.0 0.00 0.00 0.00 71 1015.7
20260504033229 63 101 0.0 0.0 0.00 0.00 0.00 70 1015.7
20260504032250 63 103 0.0 0.0 0.00 0.00 0.00 70 1015.6
20260504031303 63 92 0.0 0.0 0.00 0.00 0.00 71 1015.5
20260504030228 63 92 0.0 0.0 0.00 0.00 0.00 70 1015.3
20260504025206 63 92 0.0 0.0 0.00 0.00 0.00 70 1015.2
20260504024151 63 96 0.0 0.0 0.00 0.00 0.00 69 1014.9
20260504023132 63 104 0.0 0.0 0.00 0.00 0.00 68 1014.9
20260504022116 63 89 0.0 1.0 0.00 0.00 0.00 69 1015.2
20260504020006 64 154 0.0 0.0 0.00 0.00 0.00 69 1015.0
20260504015007 64 160 0.0 0.0 0.00 0.00 0.00 68 1014.9
20260504014009 64 88 0.0 1.0 0.00 0.00 0.00 68 1014.7
20260504013030 64 93 0.0 0.0 0.00 0.00 0.00 67 1014.9
20260504012024 64 101 0.0 0.0 0.00 0.00 0.00 67 1014.7
20260504011002 65 92 0.0 0.0 0.00 0.00 0.00 66 1014.6
20260504005935 64 89 0.0 4.0 0.00 0.00 0.00 65 1014.5
20260504004957 65 132 0.0 0.0 0.00 0.00 0.00 64 1014.3
20260504002824 66 109 0.0 0.0 0.00 0.00 0.00 64 1014.1
20260504001805 66 96 0.0 0.0 0.00 0.00 0.00 64 1014.1
20260504000751 66 57 0.0 0.0 0.00 0.00 0.00 62 1014.0
20260503234550 69 112 0.0 0.0 0.00 0.00 0.00 56 1013.8
20260503232421 71 91 0.0 0.0 0.00 0.00 0.00 53 1013.7
20260503231415 71 103 0.0 0.0 0.00 0.00 0.00 52 1013.7
20260503230413 70 151 0.0 1.0 0.00 0.00 0.00 54 1014.1
20260503225354 71 113 0.0 0.0 0.00 0.00 0.00 52 1014.2
20260503224327 72 96 0.0 0.0 0.00 0.00 0.00 52 1014.3
20260503223251 72 82 0.0 0.0 0.00 0.00 0.00 52 1014.2
20260503221127 72 86 0.0 0.0 0.00 0.00 0.00 53 1014.3
20260503220127 71 101 0.0 3.0 0.00 0.00 0.00 53 1014.3
20260503215107 71 111 0.0 0.0 0.00 0.00 0.00 53 1014.6
20260503214121 71 98 0.0 0.0 0.00 0.00 0.00 56 1014.7
20260503211940 70 129 0.0 3.0 0.00 0.00 0.00 57 1014.9
20260503205832 69 205 0.0 2.0 0.00 0.00 0.00 63 1015.0
20260503204810 68 145 0.0 1.0 0.00 0.00 0.00 63 1015.1
20260503203750 68 167 0.0 0.0 0.00 0.00 0.00 63 1015.2
20260503201616 67 89 0.0 0.0 0.00 0.00 0.00 65 1015.2
20260503200606 67 126 0.0 0.0 0.00 0.00 0.00 64 1015.4
20260503195546 68 113 0.0 0.0 0.00 0.00 0.00 64 1015.4
20260503194547 68 96 0.0 0.0 0.00 0.00 0.00 64 1015.4
20260503193528 68 97 0.0 2.0 0.00 0.00 0.00 62 1015.4
20260503192500 68 54 0.0 2.0 0.00 0.00 0.00 63 1015.4
20260503191513 68 129 0.0 1.0 0.00 0.00 0.00 65 1015.5
20260503185343 66 114 0.0 0.0 0.00 0.00 0.00 68 1015.5
20260503184336 66 103 0.0 0.0 0.00 0.00 0.00 67 1015.6